iso_date,Year,Hour,Min,DOY,POS_DOY,Lat,Lon,BP,Ts,Ta,has_bp,has_ts,has_ta,BuoyID,Buoy_Type,Buoy_Owner,Logistics,Hemisphere
2021-11-23T16:59:57Z,2021,17,0,327.7083,327.7083,79.06,35.513,1015.4,-5.0,-999.0,yes,yes,no,300234068341640,BD2GHI,AOML,ALLIANCE,North
2021-11-23T18:00:00Z,2021,18,0,327.75,327.75,79.054,35.473,1015.8,-5.0,-999.0,yes,yes,no,300234068341640,BD2GHI,AOML,ALLIANCE,North
2021-11-23T19:00:02Z,2021,19,0,327.7917,327.7917,79.044,35.436,1016.4,-5.0,-999.0,yes,yes,no,300234068341640,BD2GHI,AOML,ALLIANCE,North
2021-11-23T19:59:57Z,2021,20,0,327.8333,327.8333,79.036,35.385,1016.6,-5.0,-999.0,yes,yes,no,300234068341640,BD2GHI,AOML,ALLIANCE,North
2021-11-23T21:00:00Z,2021,21,0,327.875,327.875,79.029,35.333,1017.0,-5.0,-999.0,yes,yes,no,300234068341640,BD2GHI,AOML,ALLIANCE,North
2021-11-23T22:00:02Z,2021,22,0,327.9167,327.9167,79.025,35.283,1017.2,-5.0,-999.0,yes,yes,no,300234068341640,BD2GHI,AOML,ALLIANCE,North
2021-11-23T22:59:57Z,2021,23,0,327.9583,327.9583,79.022,35.241,1017.3,-5.0,-999.0,yes,yes,no,300234068341640,BD2GHI,AOML,ALLIANCE,North
2021-11-24T00:00:00Z,2021,0,0,328.0,328.0,79.022,35.208,1017.2,-5.0,-999.0,yes,yes,no,300234068341640,BD2GHI,AOML,ALLIANCE,North
2021-11-24T01:00:02Z,2021,1,0,328.0417,328.0417,79.02,35.186,1017.5,-5.0,-999.0,yes,yes,no,300234068341640,BD2GHI,AOML,ALLIANCE,North
2021-11-24T01:59:57Z,2021,2,0,328.0833,328.0833,79.018,35.178,1017.4,-5.0,-999.0,yes,yes,no,300234068341640,BD2GHI,AOML,ALLIANCE,North
2021-11-24T04:00:02Z,2021,4,0,328.1667,328.1667,79.009,35.195,1016.6,-5.0,-999.0,yes,yes,no,300234068341640,BD2GHI,AOML,ALLIANCE,North
2021-11-24T04:59:57Z,2021,5,0,328.2083,328.2083,78.999,35.199,1016.5,-5.0,-999.0,yes,yes,no,300234068341640,BD2GHI,AOML,ALLIANCE,North
2021-11-24T06:00:00Z,2021,6,0,328.25,328.25,78.989,35.202,1016.1,-5.0,-999.0,yes,yes,no,300234068341640,BD2GHI,AOML,ALLIANCE,North
2021-11-24T07:00:02Z,2021,7,0,328.2917,328.2917,78.978,35.185,1015.9,-5.0,-999.0,yes,yes,no,300234068341640,BD2GHI,AOML,ALLIANCE,North
2021-11-24T07:59:57Z,2021,8,0,328.3333,328.3333,78.967,35.17,1015.7,-5.0,-999.0,yes,yes,no,300234068341640,BD2GHI,AOML,ALLIANCE,North
2021-11-24T09:00:00Z,2021,9,0,328.375,328.375,78.958,35.154,1015.3,-5.0,-999.0,yes,yes,no,300234068341640,BD2GHI,AOML,ALLIANCE,North
2021-11-24T10:00:02Z,2021,10,0,328.4167,328.4167,78.952,35.135,1014.9,-5.0,-999.0,yes,yes,no,300234068341640,BD2GHI,AOML,ALLIANCE,North
2021-11-24T10:59:57Z,2021,11,0,328.4583,328.4583,78.946,35.118,1014.4,-5.0,-999.0,yes,yes,no,300234068341640,BD2GHI,AOML,ALLIANCE,North
2021-11-24T12:00:00Z,2021,12,0,328.5,328.5,78.943,35.109,1014.2,-5.0,-999.0,yes,yes,no,300234068341640,BD2GHI,AOML,ALLIANCE,North
2021-11-24T13:00:02Z,2021,13,0,328.5417,328.5417,78.94,35.109,1013.5,-5.0,-999.0,yes,yes,no,300234068341640,BD2GHI,AOML,ALLIANCE,North
2021-11-24T13:59:57Z,2021,14,0,328.5833,328.5833,78.935,35.118,1013.3,-5.0,-999.0,yes,yes,no,300234068341640,BD2GHI,AOML,ALLIANCE,North
2021-11-24T15:00:00Z,2021,15,0,328.625,328.625,78.93,35.129,1012.5,-5.0,-999.0,yes,yes,no,300234068341640,BD2GHI,AOML,ALLIANCE,North
2021-11-24T16:00:02Z,2021,16,0,328.6667,328.6667,78.923,35.15,1012.0,-5.0,-999.0,yes,yes,no,300234068341640,BD2GHI,AOML,ALLIANCE,North
2021-11-24T16:59:57Z,2021,17,0,328.7083,328.7083,78.914,35.164,1011.4,-5.0,-999.0,yes,yes,no,300234068341640,BD2GHI,AOML,ALLIANCE,North
2021-11-24T18:00:00Z,2021,18,0,328.75,328.75,78.903,35.179,1010.8,-5.0,-999.0,yes,yes,no,300234068341640,BD2GHI,AOML,ALLIANCE,North
2021-11-24T19:00:02Z,2021,19,0,328.7917,328.7917,78.894,35.182,1010.1,-5.0,-999.0,yes,yes,no,300234068341640,BD2GHI,AOML,ALLIANCE,North
2021-11-24T19:59:57Z,2021,20,0,328.8333,328.8333,78.885,35.18,1008.8,-5.0,-999.0,yes,yes,no,300234068341640,BD2GHI,AOML,ALLIANCE,North
2021-11-24T21:00:00Z,2021,21,0,328.875,328.875,78.879,35.172,1008.1,-5.0,-999.0,yes,yes,no,300234068341640,BD2GHI,AOML,ALLIANCE,North
2021-11-24T22:00:02Z,2021,22,0,328.9167,328.9167,78.873,35.164,1007.3,-5.0,-999.0,yes,yes,no,300234068341640,BD2GHI,AOML,ALLIANCE,North
2021-11-24T22:59:57Z,2021,23,0,328.9583,328.9583,78.87,35.159,1006.6,-5.0,-999.0,yes,yes,no,300234068341640,BD2GHI,AOML,ALLIANCE,North
2021-11-25T00:00:00Z,2021,0,0,329.0,329.0,78.872,35.156,1005.6,-5.0,-999.0,yes,yes,no,300234068341640,BD2GHI,AOML,ALLIANCE,North
2021-11-25T01:00:02Z,2021,1,0,329.0417,329.0417,78.871,35.175,1004.5,-5.0,-999.0,yes,yes,no,300234068341640,BD2GHI,AOML,ALLIANCE,North
2021-11-25T03:00:00Z,2021,3,0,329.125,329.125,78.873,35.226,1002.7,-5.0,-999.0,yes,yes,no,300234068341640,BD2GHI,AOML,ALLIANCE,North
2021-11-25T04:00:02Z,2021,4,0,329.1667,329.1667,78.873,35.259,1002.1,-5.0,-999.0,yes,yes,no,300234068341640,BD2GHI,AOML,ALLIANCE,North
2021-11-25T04:59:57Z,2021,5,0,329.2083,329.2083,78.871,35.279,1001.3,-5.0,-999.0,yes,yes,no,300234068341640,BD2GHI,AOML,ALLIANCE,North
2021-11-25T06:00:00Z,2021,6,0,329.25,329.25,78.868,35.298,1000.2,-5.0,-999.0,yes,yes,no,300234068341640,BD2GHI,AOML,ALLIANCE,North
2021-11-25T07:59:57Z,2021,8,0,329.3333,329.3333,78.861,35.308,1000.4,-5.0,-999.0,yes,yes,no,300234068341640,BD2GHI,AOML,ALLIANCE,North
2021-11-25T10:00:02Z,2021,10,0,329.4167,329.4167,78.856,35.293,1000.1,-5.0,-999.0,yes,yes,no,300234068341640,BD2GHI,AOML,ALLIANCE,North
2021-11-25T10:59:57Z,2021,11,0,329.4583,329.4583,78.855,35.285,1000.0,-5.0,-999.0,yes,yes,no,300234068341640,BD2GHI,AOML,ALLIANCE,North
2021-11-25T12:00:00Z,2021,12,0,329.5,329.5,78.858,35.281,999.5,-5.0,-999.0,yes,yes,no,300234068341640,BD2GHI,AOML,ALLIANCE,North
2021-11-25T13:00:02Z,2021,13,0,329.5417,329.5417,78.861,35.283,999.5,-5.0,-999.0,yes,yes,no,300234068341640,BD2GHI,AOML,ALLIANCE,North
2021-11-25T13:59:57Z,2021,14,0,329.5833,329.5833,78.866,35.292,999.4,-5.0,-999.0,yes,yes,no,300234068341640,BD2GHI,AOML,ALLIANCE,North
2021-11-25T15:00:00Z,2021,15,0,329.625,329.625,78.87,35.307,999.2,-5.0,-999.0,yes,yes,no,300234068341640,BD2GHI,AOML,ALLIANCE,North
2021-11-25T18:00:00Z,2021,18,0,329.75,329.75,78.871,35.352,999.8,-5.0,-999.0,yes,yes,no,300234068341640,BD2GHI,AOML,ALLIANCE,North
2021-11-25T19:00:02Z,2021,19,0,329.7917,329.7917,78.868,35.349,999.9,-5.0,-999.0,yes,yes,no,300234068341640,BD2GHI,AOML,ALLIANCE,North
2021-11-25T19:59:57Z,2021,20,0,329.8333,329.8333,78.865,35.334,1000.0,-5.0,-999.0,yes,yes,no,300234068341640,BD2GHI,AOML,ALLIANCE,North
2021-11-25T21:00:00Z,2021,21,0,329.875,329.875,78.863,35.312,1000.2,-5.0,-999.0,yes,yes,no,300234068341640,BD2GHI,AOML,ALLIANCE,North
2021-11-25T22:00:02Z,2021,22,0,329.9167,329.9167,78.862,35.281,1000.3,-5.0,-999.0,yes,yes,no,300234068341640,BD2GHI,AOML,ALLIANCE,North
2021-11-25T22:59:57Z,2021,23,0,329.9583,329.9583,78.864,35.244,1000.8,-5.0,-999.0,yes,yes,no,300234068341640,BD2GHI,AOML,ALLIANCE,North
2021-11-26T00:00:00Z,2021,0,0,330.0,330.0,78.867,35.207,1001.1,-5.0,-999.0,yes,yes,no,300234068341640,BD2GHI,AOML,ALLIANCE,North
2021-11-26T01:00:02Z,2021,1,0,330.0417,330.0417,78.871,35.182,1001.3,-5.0,-999.0,yes,yes,no,300234068341640,BD2GHI,AOML,ALLIANCE,North
2021-11-26T01:59:57Z,2021,2,0,330.0833,330.0833,78.874,35.171,1001.3,-5.0,-999.0,yes,yes,no,300234068341640,BD2GHI,AOML,ALLIANCE,North
2021-11-26T03:00:00Z,2021,3,0,330.125,330.125,78.877,35.17,1001.4,-5.0,-999.0,yes,yes,no,300234068341640,BD2GHI,AOML,ALLIANCE,North
2021-11-26T04:00:02Z,2021,4,0,330.1667,330.1667,78.88,35.177,1002.1,-5.0,-999.0,yes,yes,no,300234068341640,BD2GHI,AOML,ALLIANCE,North
2021-11-26T04:59:57Z,2021,5,0,330.2083,330.2083,78.881,35.182,1002.8,-5.0,-999.0,yes,yes,no,300234068341640,BD2GHI,AOML,ALLIANCE,North
2021-11-26T06:00:00Z,2021,6,0,330.25,330.25,78.88,35.187,1003.3,-5.0,-999.0,yes,yes,no,300234068341640,BD2GHI,AOML,ALLIANCE,North
2021-11-26T07:00:02Z,2021,7,0,330.2917,330.2917,78.878,35.187,1003.6,-5.0,-999.0,yes,yes,no,300234068341640,BD2GHI,AOML,ALLIANCE,North
2021-11-26T07:59:57Z,2021,8,0,330.3333,330.3333,78.876,35.175,1004.4,-5.0,-999.0,yes,yes,no,300234068341640,BD2GHI,AOML,ALLIANCE,North
2021-11-26T09:00:00Z,2021,9,0,330.375,330.375,78.874,35.144,1004.4,-5.0,-999.0,yes,yes,no,300234068341640,BD2GHI,AOML,ALLIANCE,North
2021-11-26T10:00:02Z,2021,10,0,330.4167,330.4167,78.872,35.101,1004.1,-5.0,-999.0,yes,yes,no,300234068341640,BD2GHI,AOML,ALLIANCE,North
2021-11-26T12:00:00Z,2021,12,0,330.5,330.5,78.872,34.992,1003.2,-5.0,-999.0,yes,yes,no,300234068341640,BD2GHI,AOML,ALLIANCE,North
2021-11-26T13:00:02Z,2021,13,0,330.5417,330.5417,78.878,34.929,1002.8,-5.0,-999.0,yes,yes,no,300234068341640,BD2GHI,AOML,ALLIANCE,North
2021-11-26T13:59:57Z,2021,14,0,330.5833,330.5833,78.886,34.879,1002.8,-5.0,-999.0,yes,yes,no,300234068341640,BD2GHI,AOML,ALLIANCE,North
2021-11-26T15:00:00Z,2021,15,0,330.625,330.625,78.894,34.849,1003.3,-5.0,-999.0,yes,yes,no,300234068341640,BD2GHI,AOML,ALLIANCE,North
2021-11-26T16:00:02Z,2021,16,0,330.6667,330.6667,78.902,34.841,1004.2,-5.0,-999.0,yes,yes,no,300234068341640,BD2GHI,AOML,ALLIANCE,North
2021-11-26T16:59:57Z,2021,17,0,330.7083,330.7083,78.906,34.849,1004.6,-5.0,-999.0,yes,yes,no,300234068341640,BD2GHI,AOML,ALLIANCE,North
2021-11-26T18:00:00Z,2021,18,0,330.75,330.75,78.908,34.849,1004.9,-5.0,-999.0,yes,yes,no,300234068341640,BD2GHI,AOML,ALLIANCE,North
2021-11-26T19:00:02Z,2021,19,0,330.7917,330.7917,78.909,34.837,1005.0,-5.0,-999.0,yes,yes,no,300234068341640,BD2GHI,AOML,ALLIANCE,North
2021-11-26T19:59:57Z,2021,20,0,330.8333,330.8333,78.908,34.811,1005.4,-5.0,-999.0,yes,yes,no,300234068341640,BD2GHI,AOML,ALLIANCE,North
2021-11-26T21:00:00Z,2021,21,0,330.875,330.875,78.909,34.787,1005.9,-5.0,-999.0,yes,yes,no,300234068341640,BD2GHI,AOML,ALLIANCE,North
2021-11-26T22:00:02Z,2021,22,0,330.9167,330.9167,78.91,34.746,1005.9,-5.0,-999.0,yes,yes,no,300234068341640,BD2GHI,AOML,ALLIANCE,North
2021-11-26T22:59:57Z,2021,23,0,330.9583,330.9583,78.912,34.693,1006.1,-5.0,-999.0,yes,yes,no,300234068341640,BD2GHI,AOML,ALLIANCE,North
2021-11-27T00:00:00Z,2021,0,0,331.0,331.0,78.916,34.644,1006.1,-5.0,-999.0,yes,yes,no,300234068341640,BD2GHI,AOML,ALLIANCE,North
2021-11-27T01:59:57Z,2021,2,0,331.0833,331.0833,78.927,34.563,1006.6,-5.0,-999.0,yes,yes,no,300234068341640,BD2GHI,AOML,ALLIANCE,North
2021-11-27T03:00:00Z,2021,3,0,331.125,331.125,78.934,34.534,1006.7,-5.0,-999.0,yes,yes,no,300234068341640,BD2GHI,AOML,ALLIANCE,North
2021-11-27T04:00:02Z,2021,4,0,331.1667,331.1667,78.942,34.507,1007.1,-5.0,-999.0,yes,yes,no,300234068341640,BD2GHI,AOML,ALLIANCE,North
2021-11-27T04:59:57Z,2021,5,0,331.2083,331.2083,78.947,34.475,1007.4,-5.0,-999.0,yes,yes,no,300234068341640,BD2GHI,AOML,ALLIANCE,North
2021-11-27T06:00:00Z,2021,6,0,331.25,331.25,78.951,34.452,1007.8,-5.0,-999.0,yes,yes,no,300234068341640,BD2GHI,AOML,ALLIANCE,North
2021-11-27T07:00:02Z,2021,7,0,331.2917,331.2917,78.953,34.436,1008.2,-5.0,-999.0,yes,yes,no,300234068341640,BD2GHI,AOML,ALLIANCE,North
2021-11-27T07:59:57Z,2021,8,0,331.3333,331.3333,78.953,34.414,1008.4,-5.0,-999.0,yes,yes,no,300234068341640,BD2GHI,AOML,ALLIANCE,North
2021-11-27T09:00:00Z,2021,9,0,331.375,331.375,78.952,34.378,1008.6,-5.0,-999.0,yes,yes,no,300234068341640,BD2GHI,AOML,ALLIANCE,North
2021-11-27T10:59:57Z,2021,11,0,331.4583,331.4583,78.953,34.314,1008.9,-5.0,-999.0,yes,yes,no,300234068341640,BD2GHI,AOML,ALLIANCE,North
2021-11-27T12:00:00Z,2021,12,0,331.5,331.5,78.954,34.277,1009.2,-5.0,-999.0,yes,yes,no,300234068341640,BD2GHI,AOML,ALLIANCE,North
2021-11-27T13:00:02Z,2021,13,0,331.5417,331.5417,78.956,34.245,1009.1,-5.0,-999.0,yes,yes,no,300234068341640,BD2GHI,AOML,ALLIANCE,North
2021-11-27T13:59:57Z,2021,14,0,331.5833,331.5833,78.958,34.218,1009.3,-5.0,-999.0,yes,yes,no,300234068341640,BD2GHI,AOML,ALLIANCE,North
2021-11-27T15:00:00Z,2021,15,0,331.625,331.625,78.961,34.201,1009.4,-5.0,-999.0,yes,yes,no,300234068341640,BD2GHI,AOML,ALLIANCE,North
2021-11-27T16:00:02Z,2021,16,0,331.6667,331.6667,78.963,34.19,1009.8,-5.0,-999.0,yes,yes,no,300234068341640,BD2GHI,AOML,ALLIANCE,North
2021-11-27T16:59:57Z,2021,17,0,331.7083,331.7083,78.964,34.186,1009.9,-5.0,-999.0,yes,yes,no,300234068341640,BD2GHI,AOML,ALLIANCE,North
2021-11-27T18:00:00Z,2021,18,0,331.75,331.75,78.963,34.186,1009.8,-5.0,-999.0,yes,yes,no,300234068341640,BD2GHI,AOML,ALLIANCE,North
2021-11-27T19:00:02Z,2021,19,0,331.7917,331.7917,78.96,34.173,1010.0,-5.0,-999.0,yes,yes,no,300234068341640,BD2GHI,AOML,ALLIANCE,North
2021-11-27T19:59:57Z,2021,20,0,331.8333,331.8333,78.956,34.143,1010.0,-5.0,-999.0,yes,yes,no,300234068341640,BD2GHI,AOML,ALLIANCE,North
2021-11-27T21:00:00Z,2021,21,0,331.875,331.875,78.951,34.112,1010.1,-5.0,-999.0,yes,yes,no,300234068341640,BD2GHI,AOML,ALLIANCE,North
2021-11-27T22:00:02Z,2021,22,0,331.9167,331.9167,78.946,34.073,1010.1,-5.0,-999.0,yes,yes,no,300234068341640,BD2GHI,AOML,ALLIANCE,North
2021-11-27T22:59:57Z,2021,23,0,331.9583,331.9583,78.942,34.026,1010.4,-5.0,-999.0,yes,yes,no,300234068341640,BD2GHI,AOML,ALLIANCE,North
2021-11-28T00:00:00Z,2021,0,0,332.0,332.0,78.939,33.972,1010.7,-5.0,-999.0,yes,yes,no,300234068341640,BD2GHI,AOML,ALLIANCE,North
2021-11-28T01:00:02Z,2021,1,0,332.0417,332.0417,78.937,33.918,1010.6,-5.0,-999.0,yes,yes,no,300234068341640,BD2GHI,AOML,ALLIANCE,North
2021-11-28T01:59:57Z,2021,2,0,332.0833,332.0833,78.936,33.871,1010.8,-5.0,-999.0,yes,yes,no,300234068341640,BD2GHI,AOML,ALLIANCE,North
2021-11-28T03:00:00Z,2021,3,0,332.125,332.125,78.936,33.836,1011.2,-5.0,-999.0,yes,yes,no,300234068341640,BD2GHI,AOML,ALLIANCE,North
2021-11-28T04:00:02Z,2021,4,0,332.1667,332.1667,78.935,33.817,1011.4,-5.0,-999.0,yes,yes,no,300234068341640,BD2GHI,AOML,ALLIANCE,North
2021-11-28T04:59:57Z,2021,5,0,332.2083,332.2083,78.935,33.787,1011.7,-5.0,-999.0,yes,yes,no,300234068341640,BD2GHI,AOML,ALLIANCE,North
2021-11-28T06:00:00Z,2021,6,0,332.25,332.25,78.933,33.77,1011.9,-5.0,-999.0,yes,yes,no,300234068341640,BD2GHI,AOML,ALLIANCE,North
2021-11-28T07:59:57Z,2021,8,0,332.3333,332.3333,78.925,33.736,1012.7,-5.0,-999.0,yes,yes,no,300234068341640,BD2GHI,AOML,ALLIANCE,North
2021-11-28T09:00:00Z,2021,9,0,332.375,332.375,78.92,33.717,1013.0,-5.0,-999.0,yes,yes,no,300234068341640,BD2GHI,AOML,ALLIANCE,North
2021-11-28T10:00:02Z,2021,10,0,332.4167,332.4167,78.915,33.693,1013.2,-5.0,-999.0,yes,yes,no,300234068341640,BD2GHI,AOML,ALLIANCE,North
2021-11-28T10:59:57Z,2021,11,0,332.4583,332.4583,78.911,33.667,1013.2,-5.0,-999.0,yes,yes,no,300234068341640,BD2GHI,AOML,ALLIANCE,North
2021-11-28T12:00:00Z,2021,12,0,332.5,332.5,78.908,33.641,1013.6,-5.0,-999.0,yes,yes,no,300234068341640,BD2GHI,AOML,ALLIANCE,North
2021-11-28T13:00:02Z,2021,13,0,332.5417,332.5417,78.906,33.62,1014.3,-5.0,-999.0,yes,yes,no,300234068341640,BD2GHI,AOML,ALLIANCE,North
2021-11-28T13:59:57Z,2021,14,0,332.5833,332.5833,78.907,33.608,1014.4,-5.0,-999.0,yes,yes,no,300234068341640,BD2GHI,AOML,ALLIANCE,North
2021-11-28T15:00:00Z,2021,15,0,332.625,332.625,78.907,33.603,1014.5,-5.0,-999.0,yes,yes,no,300234068341640,BD2GHI,AOML,ALLIANCE,North
2021-11-28T16:00:02Z,2021,16,0,332.6667,332.6667,78.908,33.599,1014.8,-5.0,-999.0,yes,yes,no,300234068341640,BD2GHI,AOML,ALLIANCE,North
2021-11-28T16:59:57Z,2021,17,0,332.7083,332.7083,78.907,33.598,1014.9,-5.0,-999.0,yes,yes,no,300234068341640,BD2GHI,AOML,ALLIANCE,North
2021-11-28T18:00:00Z,2021,18,0,332.75,332.75,78.905,33.605,1015.4,-5.0,-999.0,yes,yes,no,300234068341640,BD2GHI,AOML,ALLIANCE,North
2021-11-28T19:00:02Z,2021,19,0,332.7917,332.7917,78.906,33.597,1016.0,-5.0,-999.0,yes,yes,no,300234068341640,BD2GHI,AOML,ALLIANCE,North
2021-11-28T19:59:57Z,2021,20,0,332.8333,332.8333,78.904,33.592,1016.2,-5.0,-999.0,yes,yes,no,300234068341640,BD2GHI,AOML,ALLIANCE,North
2021-11-28T21:00:00Z,2021,21,0,332.875,332.875,78.901,33.583,1016.2,-5.0,-999.0,yes,yes,no,300234068341640,BD2GHI,AOML,ALLIANCE,North
2021-11-28T22:00:02Z,2021,22,0,332.9167,332.9167,78.897,33.568,1016.6,-5.0,-999.0,yes,yes,no,300234068341640,BD2GHI,AOML,ALLIANCE,North
2021-11-28T22:59:57Z,2021,23,0,332.9583,332.9583,78.893,33.548,1016.7,-5.0,-999.0,yes,yes,no,300234068341640,BD2GHI,AOML,ALLIANCE,North
2021-11-29T00:00:00Z,2021,0,0,333.0,333.0,78.89,33.523,1016.6,-5.0,-999.0,yes,yes,no,300234068341640,BD2GHI,AOML,ALLIANCE,North
2021-11-29T01:00:02Z,2021,1,0,333.0417,333.0417,78.888,33.497,1016.5,-5.0,-999.0,yes,yes,no,300234068341640,BD2GHI,AOML,ALLIANCE,North
2021-11-29T01:59:57Z,2021,2,0,333.0833,333.0833,78.887,33.472,1016.7,-5.0,-999.0,yes,yes,no,300234068341640,BD2GHI,AOML,ALLIANCE,North
2021-11-29T03:00:00Z,2021,3,0,333.125,333.125,78.888,33.45,1016.8,-5.0,-999.0,yes,yes,no,300234068341640,BD2GHI,AOML,ALLIANCE,North
2021-11-29T04:00:02Z,2021,4,0,333.1667,333.1667,78.889,33.437,1016.7,-5.0,-999.0,yes,yes,no,300234068341640,BD2GHI,AOML,ALLIANCE,North
2021-11-29T04:59:57Z,2021,5,0,333.2083,333.2083,78.89,33.426,1016.7,-5.0,-999.0,yes,yes,no,300234068341640,BD2GHI,AOML,ALLIANCE,North
2021-11-29T06:00:00Z,2021,6,0,333.25,333.25,78.891,33.419,1016.9,-5.0,-999.0,yes,yes,no,300234068341640,BD2GHI,AOML,ALLIANCE,North
2021-11-29T07:00:02Z,2021,7,0,333.2917,333.2917,78.89,33.414,1017.1,-5.0,-999.0,yes,yes,no,300234068341640,BD2GHI,AOML,ALLIANCE,North
2021-11-29T07:59:57Z,2021,8,0,333.3333,333.3333,78.889,33.406,1017.1,-5.0,-999.0,yes,yes,no,300234068341640,BD2GHI,AOML,ALLIANCE,North
2021-11-29T09:00:00Z,2021,9,0,333.375,333.375,78.887,33.401,1017.5,-5.0,-999.0,yes,yes,no,300234068341640,BD2GHI,AOML,ALLIANCE,North
2021-11-29T10:00:02Z,2021,10,0,333.4167,333.4167,78.884,33.392,1017.7,-5.0,-999.0,yes,yes,no,300234068341640,BD2GHI,AOML,ALLIANCE,North
2021-11-29T10:59:57Z,2021,11,0,333.4583,333.4583,78.88,33.377,1017.4,-5.0,-999.0,yes,yes,no,300234068341640,BD2GHI,AOML,ALLIANCE,North
2021-11-29T12:00:00Z,2021,12,0,333.5,333.5,78.876,33.358,1017.1,-5.0,-999.0,yes,yes,no,300234068341640,BD2GHI,AOML,ALLIANCE,North
2021-11-29T13:00:02Z,2021,13,0,333.5417,333.5417,78.872,33.337,1016.7,-5.0,-999.0,yes,yes,no,300234068341640,BD2GHI,AOML,ALLIANCE,North
2021-11-29T13:59:57Z,2021,14,0,333.5833,333.5833,78.87,33.318,1016.8,-5.0,-999.0,yes,yes,no,300234068341640,BD2GHI,AOML,ALLIANCE,North
2021-11-29T15:00:00Z,2021,15,0,333.625,333.625,78.869,33.304,1016.5,-5.0,-999.0,yes,yes,no,300234068341640,BD2GHI,AOML,ALLIANCE,North
2021-11-29T16:59:57Z,2021,17,0,333.7083,333.7083,78.87,33.284,1016.2,-5.0,-999.0,yes,yes,no,300234068341640,BD2GHI,AOML,ALLIANCE,North
2021-11-29T18:00:00Z,2021,18,0,333.75,333.75,78.871,33.273,1016.1,-5.0,-999.0,yes,yes,no,300234068341640,BD2GHI,AOML,ALLIANCE,North
2021-11-29T19:00:02Z,2021,19,0,333.7917,333.7917,78.87,33.272,1016.1,-5.0,-999.0,yes,yes,no,300234068341640,BD2GHI,AOML,ALLIANCE,North
2021-11-29T19:59:57Z,2021,20,0,333.8333,333.8333,78.87,33.272,1015.6,-5.0,-999.0,yes,yes,no,300234068341640,BD2GHI,AOML,ALLIANCE,North
2021-11-29T21:00:00Z,2021,21,0,333.875,333.875,78.868,33.261,1015.4,-5.0,-999.0,yes,yes,no,300234068341640,BD2GHI,AOML,ALLIANCE,North
2021-11-29T22:00:02Z,2021,22,0,333.9167,333.9167,78.866,33.248,1015.2,-5.0,-999.0,yes,yes,no,300234068341640,BD2GHI,AOML,ALLIANCE,North
2021-11-29T22:59:57Z,2021,23,0,333.9583,333.9583,78.863,33.232,1015.1,-5.0,-999.0,yes,yes,no,300234068341640,BD2GHI,AOML,ALLIANCE,North
2021-11-30T00:00:00Z,2021,0,0,334.0,334.0,78.86,33.21,1014.5,-5.0,-999.0,yes,yes,no,300234068341640,BD2GHI,AOML,ALLIANCE,North
2021-11-30T01:00:02Z,2021,1,0,334.0417,334.0417,78.858,33.186,1014.5,-5.0,-999.0,yes,yes,no,300234068341640,BD2GHI,AOML,ALLIANCE,North
2021-11-30T01:59:57Z,2021,2,0,334.0833,334.0833,78.857,33.159,1014.3,-5.0,-999.0,yes,yes,no,300234068341640,BD2GHI,AOML,ALLIANCE,North
2021-11-30T03:00:00Z,2021,3,0,334.125,334.125,78.857,33.135,1014.3,-5.0,-999.0,yes,yes,no,300234068341640,BD2GHI,AOML,ALLIANCE,North
2021-11-30T04:00:02Z,2021,4,0,334.1667,334.1667,78.858,33.115,1014.1,-5.0,-999.0,yes,yes,no,300234068341640,BD2GHI,AOML,ALLIANCE,North
2021-11-30T04:59:57Z,2021,5,0,334.2083,334.2083,78.861,33.095,1014.1,-5.0,-999.0,yes,yes,no,300234068341640,BD2GHI,AOML,ALLIANCE,North
2021-11-30T06:00:00Z,2021,6,0,334.25,334.25,78.864,33.082,1014.0,-5.0,-999.0,yes,yes,no,300234068341640,BD2GHI,AOML,ALLIANCE,North
2021-11-30T07:00:02Z,2021,7,0,334.2917,334.2917,78.865,33.068,1013.9,-5.0,-999.0,yes,yes,no,300234068341640,BD2GHI,AOML,ALLIANCE,North
2021-11-30T07:59:57Z,2021,8,0,334.3333,334.3333,78.866,33.048,1014.1,-5.0,-999.0,yes,yes,no,300234068341640,BD2GHI,AOML,ALLIANCE,North
2021-11-30T09:00:00Z,2021,9,0,334.375,334.375,78.866,33.041,1014.3,-5.0,-999.0,yes,yes,no,300234068341640,BD2GHI,AOML,ALLIANCE,North
2021-11-30T10:00:02Z,2021,10,0,334.4167,334.4167,78.865,33.033,1014.4,-5.0,-999.0,yes,yes,no,300234068341640,BD2GHI,AOML,ALLIANCE,North
2021-11-30T12:00:00Z,2021,12,0,334.5,334.5,78.859,32.997,1014.1,-5.0,-999.0,yes,yes,no,300234068341640,BD2GHI,AOML,ALLIANCE,North
2021-11-30T13:00:02Z,2021,13,0,334.5417,334.5417,78.855,32.974,1014.1,-5.0,-999.0,yes,yes,no,300234068341640,BD2GHI,AOML,ALLIANCE,North
2021-11-30T13:59:57Z,2021,14,0,334.5833,334.5833,78.853,32.951,1014.4,-5.0,-999.0,yes,yes,no,300234068341640,BD2GHI,AOML,ALLIANCE,North
2021-11-30T15:00:00Z,2021,15,0,334.625,334.625,78.85,32.926,1014.3,-5.0,-999.0,yes,yes,no,300234068341640,BD2GHI,AOML,ALLIANCE,North
2021-11-30T16:00:02Z,2021,16,0,334.6667,334.6667,78.85,32.902,1014.7,-5.0,-999.0,yes,yes,no,300234068341640,BD2GHI,AOML,ALLIANCE,North
2021-11-30T16:59:57Z,2021,17,0,334.7083,334.7083,78.85,32.881,1015.1,-5.0,-999.0,yes,yes,no,300234068341640,BD2GHI,AOML,ALLIANCE,North
2021-11-30T18:00:00Z,2021,18,0,334.75,334.75,78.851,32.859,1015.1,-5.0,-999.0,yes,yes,no,300234068341640,BD2GHI,AOML,ALLIANCE,North
2021-11-30T19:00:02Z,2021,19,0,334.7917,334.7917,78.851,32.852,1015.5,-5.0,-999.0,yes,yes,no,300234068341640,BD2GHI,AOML,ALLIANCE,North
2021-11-30T19:59:57Z,2021,20,0,334.8333,334.8333,78.851,32.842,1015.7,-5.0,-999.0,yes,yes,no,300234068341640,BD2GHI,AOML,ALLIANCE,North
2021-11-30T21:00:00Z,2021,21,0,334.875,334.875,78.85,32.832,1016.0,-5.0,-999.0,yes,yes,no,300234068341640,BD2GHI,AOML,ALLIANCE,North
2021-11-30T22:59:57Z,2021,23,0,334.9583,334.9583,78.844,32.819,1016.5,-5.0,-999.0,yes,yes,no,300234068341640,BD2GHI,AOML,ALLIANCE,North
2021-12-01T00:00:00Z,2021,0,0,335.0,335.0,78.842,32.794,1016.6,-5.0,-999.0,yes,yes,no,300234068341640,BD2GHI,AOML,ALLIANCE,North
2021-12-01T01:00:02Z,2021,1,0,335.0417,335.0417,78.84,32.774,1017.0,-5.0,-999.0,yes,yes,no,300234068341640,BD2GHI,AOML,ALLIANCE,North
2021-12-01T01:59:57Z,2021,2,0,335.0833,335.0833,78.837,32.749,1017.4,-5.0,-999.0,yes,yes,no,300234068341640,BD2GHI,AOML,ALLIANCE,North
2021-12-01T03:00:00Z,2021,3,0,335.125,335.125,78.834,32.729,1017.7,-5.0,-999.0,yes,yes,no,300234068341640,BD2GHI,AOML,ALLIANCE,North
2021-12-01T04:00:02Z,2021,4,0,335.1667,335.1667,78.834,32.711,1018.5,-5.0,-999.0,yes,yes,no,300234068341640,BD2GHI,AOML,ALLIANCE,North
2021-12-01T04:59:57Z,2021,5,0,335.2083,335.2083,78.835,32.695,1018.6,-5.0,-999.0,yes,yes,no,300234068341640,BD2GHI,AOML,ALLIANCE,North
2021-12-01T06:00:00Z,2021,6,0,335.25,335.25,78.836,32.687,1018.9,-5.0,-999.0,yes,yes,no,300234068341640,BD2GHI,AOML,ALLIANCE,North
2021-12-01T07:00:02Z,2021,7,0,335.2917,335.2917,78.838,32.673,1019.5,-5.0,-999.0,yes,yes,no,300234068341640,BD2GHI,AOML,ALLIANCE,North
2021-12-01T07:59:57Z,2021,8,0,335.3333,335.3333,78.839,32.662,1019.9,-5.0,-999.0,yes,yes,no,300234068341640,BD2GHI,AOML,ALLIANCE,North
2021-12-01T09:00:00Z,2021,9,0,335.375,335.375,78.839,32.665,1020.2,-5.0,-999.0,yes,yes,no,300234068341640,BD2GHI,AOML,ALLIANCE,North
2021-12-01T10:00:02Z,2021,10,0,335.4167,335.4167,78.839,32.666,1020.3,-5.0,-999.0,yes,yes,no,300234068341640,BD2GHI,AOML,ALLIANCE,North
2021-12-01T10:59:57Z,2021,11,0,335.4583,335.4583,78.837,32.663,1020.7,-5.0,-999.0,yes,yes,no,300234068341640,BD2GHI,AOML,ALLIANCE,North
2021-12-01T12:00:00Z,2021,12,0,335.5,335.5,78.835,32.662,1020.7,-5.0,-999.0,yes,yes,no,300234068341640,BD2GHI,AOML,ALLIANCE,North
2021-12-01T13:00:02Z,2021,13,0,335.5417,335.5417,78.83,32.657,1020.6,-5.0,-999.0,yes,yes,no,300234068341640,BD2GHI,AOML,ALLIANCE,North
2021-12-01T13:59:57Z,2021,14,0,335.5833,335.5833,78.826,32.654,1020.8,-5.0,-999.0,yes,yes,no,300234068341640,BD2GHI,AOML,ALLIANCE,North
2021-12-01T15:00:00Z,2021,15,0,335.625,335.625,78.823,32.642,1020.7,-5.0,-999.0,yes,yes,no,300234068341640,BD2GHI,AOML,ALLIANCE,North